Stündliche Wetter Bolshie Selischi

Heute, 24 Januar, Sonntag

Zeit Temperatur Niederschläge Wind Luftdruck Luftfeuchtigkeit
00:00 +1°C° 0 mm 2 m/S 745 mmHg 98%
01:00 +1°C° 0 mm 2 m/S 745 mmHg 98%
02:00 +1°C° 0 mm 2 m/S 745 mmHg 98%
03:00 +1°C° 0 mm 2 m/S 745 mmHg 98%
04:00 +1°C° 0 mm 2 m/S 744 mmHg 98%
05:00 +1°C° 0 mm 2 m/S 744 mmHg 98%
06:00 +1°C° 0 mm 2 m/S 744 mmHg 98%
07:00 +1°C° 0 mm 2 m/S 745 mmHg 97%
08:00 +1°C° 0 mm 2 m/S 745 mmHg 97%
09:00 +1°C° 0 mm 2 m/S 745 mmHg 98%
10:00 0°C° 0 mm 3 m/S 745 mmHg 99%
11:00 0°C° 0 mm 3 m/S 744 mmHg 99%
12:00 0°C° 0 mm 3 m/S 744 mmHg 99%
13:00 +1°C° 0 mm 3 m/S 744 mmHg 99%
14:00 +1°C° 0 mm 3 m/S 744 mmHg 99%
15:00 +1°C° 0 mm 3 m/S 744 mmHg 99%
16:00 +1°C° 0 mm 3 m/S 744 mmHg 98%
17:00 +1°C° 0 mm 3 m/S 744 mmHg 98%
18:00 0°C° 0 mm 4 m/S 744 mmHg 98%
19:00 0°C° 0 mm 4 m/S 744 mmHg 98%
20:00 0°C° 0 mm 4 m/S 744 mmHg 98%
21:00 0°C° 0 mm 4 m/S 744 mmHg 98%
22:00 0°C° 0 mm 4 m/S 744 mmHg 98%
23:00 0°C° 0 mm 4 m/S 743 mmHg 98%

Morgen, 25 Januar, Montag

Zeit Temperatur Niederschläge Wind Luftdruck Luftfeuchtigkeit
00:00 0°C° 0 mm 4 m/S 743 mmHg 94%
01:00 0°C° 0 mm 5 m/S 743 mmHg 90%
02:00 0°C° 0 mm 5 m/S 743 mmHg 86%
03:00 -1°C° 0 mm 5 m/S 743 mmHg 87%
04:00 -1°C° 0 mm 5 m/S 743 mmHg 89%
05:00 -1°C° 0 mm 5 m/S 743 mmHg 90%
06:00 -1°C° 0 mm 5 m/S 743 mmHg 91%
07:00 -1°C° 0 mm 5 m/S 743 mmHg 91%
08:00 -1°C° 0 mm 4 m/S 743 mmHg 92%
09:00 -1°C° 0 mm 5 m/S 743 mmHg 93%
10:00 -1°C° 0 mm 5 m/S 743 mmHg 94%
11:00 0°C° 0 mm 5 m/S 743 mmHg 95%
12:00 -1°C° 0 mm 5 m/S 744 mmHg 96%
13:00 -1°C° 0 mm 4 m/S 744 mmHg 97%
14:00 -1°C° 0 mm 4 m/S 744 mmHg 98%
15:00 -1°C° 0 mm 4 m/S 744 mmHg 98%
16:00 0°C° 0 mm 4 m/S 744 mmHg 98%
17:00 +1°C° 0 mm 3 m/S 744 mmHg 97%
18:00 +1°C° 0 mm 3 m/S 744 mmHg 97%
19:00 0°C° 0 mm 3 m/S 744 mmHg 97%
20:00 0°C° 0 mm 3 m/S 745 mmHg 97%
21:00 0°C° 0 mm 3 m/S 745 mmHg 97%
22:00 0°C° 0 mm 3 m/S 745 mmHg 97%
23:00 0°C° 0 mm 3 m/S 745 mmHg 98%

übermorgen, 26 Januar, Dienstag

Zeit Temperatur Niederschläge Wind Luftdruck Luftfeuchtigkeit
00:00 0°C° 0 mm 3 m/S 745 mmHg 98%
01:00 0°C° 0 mm 3 m/S 745 mmHg 98%
02:00 0°C° 0 mm 3 m/S 745 mmHg 98%
03:00 0°C° 0 mm 3 m/S 744 mmHg 98%
04:00 -1°C° 0 mm 4 m/S 744 mmHg 98%
05:00 -1°C° 0 mm 4 m/S 744 mmHg 97%
06:00 -1°C° 0.1 mm 4 m/S 743 mmHg 97%
07:00 -1°C° 0.1 mm 5 m/S 743 mmHg 97%
08:00 0°C° 0.1 mm 5 m/S 743 mmHg 97%
09:00 0°C° 0 mm 5 m/S 743 mmHg 97%
10:00 0°C° 0 mm 5 m/S 742 mmHg 97%
11:00 0°C° 0 mm 5 m/S 742 mmHg 97%
12:00 0°C° 0.2 mm 5 m/S 742 mmHg 97%
13:00 0°C° 0.2 mm 5 m/S 741 mmHg 97%
14:00 0°C° 0.2 mm 5 m/S 741 mmHg 98%
15:00 0°C° 0 mm 5 m/S 741 mmHg 96%
16:00 -1°C° 0 mm 5 m/S 740 mmHg 93%
17:00 -1°C° 0 mm 5 m/S 740 mmHg 91%
18:00 -1°C° 0 mm 5 m/S 739 mmHg 92%
19:00 -1°C° 0 mm 5 m/S 739 mmHg 92%
20:00 -1°C° 0 mm 5 m/S 738 mmHg 93%
21:00 -1°C° 1.1 mm 5 m/S 737 mmHg 94%
22:00 -1°C° 1.1 mm 5 m/S 736 mmHg 96%
23:00 -3°C° 1.1 mm 6 m/S 735 mmHg 97%

27 Januar, Mittwoch

Zeit Temperatur Niederschläge Wind Luftdruck Luftfeuchtigkeit
00:00 -3°C° 0.5 mm 6 m/S 735 mmHg 97%
01:00 -2°C° 0.5 mm 5 m/S 735 mmHg 97%
02:00 -1°C° 0.5 mm 5 m/S 734 mmHg 96%
03:00 -2°C° 0.1 mm 5 m/S 734 mmHg 94%
04:00 -4°C° 0.1 mm 5 m/S 734 mmHg 93%
05:00 -4°C° 0.1 mm 4 m/S 734 mmHg 91%
06:00 -4°C° 0.1 mm 5 m/S 734 mmHg 91%
07:00 -4°C° 0.1 mm 5 m/S 734 mmHg 92%
08:00 -4°C° 0.1 mm 5 m/S 734 mmHg 92%
09:00 -4°C° 0.1 mm 5 m/S 734 mmHg 92%
10:00 -4°C° 0.1 mm 6 m/S 734 mmHg 91%
11:00 -3°C° 0.1 mm 6 m/S 734 mmHg 90%
12:00 -3°C° 0.1 mm 6 m/S 734 mmHg 91%
13:00 -3°C° 0.1 mm 6 m/S 734 mmHg 92%
14:00 -3°C° 0.1 mm 6 m/S 734 mmHg 93%
15:00 -2°C° 0.2 mm 5 m/S 734 mmHg 93%
16:00 -2°C° 0.2 mm 5 m/S 734 mmHg 93%
17:00 -2°C° 0.2 mm 5 m/S 735 mmHg 93%
18:00 -2°C° 0.3 mm 5 m/S 735 mmHg 94%
19:00 -3°C° 0.3 mm 6 m/S 735 mmHg 95%
20:00 -3°C° 0.3 mm 6 m/S 735 mmHg 96%
21:00 -3°C° 0.3 mm 6 m/S 736 mmHg 95%
22:00 -3°C° 0.3 mm 6 m/S 736 mmHg 94%
23:00 -3°C° 0.3 mm 6 m/S 736 mmHg 94%

28 Januar, Donnerstag

Zeit Temperatur Niederschläge Wind Luftdruck Luftfeuchtigkeit
00:00 -4°C° 0.1 mm 6 m/S 737 mmHg 93%
01:00 -4°C° 0.1 mm 5 m/S 737 mmHg 92%
02:00 -4°C° 0.1 mm 5 m/S 737 mmHg 92%
03:00 -4°C° 0.1 mm 5 m/S 738 mmHg 92%
04:00 -4°C° 0.1 mm 5 m/S 738 mmHg 92%
05:00 -4°C° 0.1 mm 5 m/S 738 mmHg 93%
06:00 -4°C° 0 mm 4 m/S 739 mmHg 92%
07:00 -4°C° 0 mm 4 m/S 739 mmHg 92%
08:00 -4°C° 0 mm 4 m/S 739 mmHg 91%
09:00 -4°C° 0 mm 4 m/S 740 mmHg 91%
10:00 -3°C° 0 mm 4 m/S 740 mmHg 90%
11:00 -3°C° 0 mm 4 m/S 740 mmHg 89%
12:00 -3°C° 0 mm 4 m/S 740 mmHg 88%
13:00 -3°C° 0 mm 4 m/S 740 mmHg 87%
14:00 -2°C° 0 mm 3 m/S 740 mmHg 86%
15:00 -2°C° 0 mm 3 m/S 741 mmHg 88%
16:00 -2°C° 0 mm 2 m/S 741 mmHg 90%
17:00 -2°C° 0 mm 2 m/S 741 mmHg 92%
18:00 -3°C° 0 mm 2 m/S 741 mmHg 93%
19:00 -3°C° 0 mm 2 m/S 741 mmHg 94%
20:00 -3°C° 0 mm 2 m/S 741 mmHg 96%

29 Januar, Freitag

Zeit Temperatur Niederschläge Wind Luftdruck Luftfeuchtigkeit
Mehr zeigen

Wir brauchen deine Erlaubnis

Meteoprog und unser Service Anbieter werden persönliche Daten aufbewahren, so wie Cookies, Geräte Bezeichnung oder ähnliche Technologien von deinem Gerät und Prozess, so wie Persönliche Daten Inhalte und Werbungen, genauso wie social Media und den Verkehr zu analysieren.

  • Aufbewahrung und/oder Zugang zu deiner Geräte Informationen.

    Cookies, Geräte Bezeichnung oder andere Informationen, können aufbewahrt oder Zugang zu deinem Gerät erhalten, für den Grund, der oben angegeben wird.

  • Personalisierte Werbung und Inhalte, Messungen, Einblick in das Publikum und Produkt Entwicklung.

    Werbungen und Inhalte können personalisiert werden, basierend auf ein Profil. Mehr Daten können besser personalisierte Werbungen und Inhalte hinzufügen. Werbung und Inhalte können gezeigt und gemessen werden. Einblicke über das Publikum, welche die Werbung gesehen haben und den Inhalt, können abgeleitet werden. So wie Daten können genutzt werden, um es zu verbessern oder die Benutzer Erfahrung zu verbessern das System und die Software.

Wenn du “Ich stimme zu” klickst, erlaubst du uns, die Cookies zu benutzen die Geräte Bezeichnung, den Web oder ähnliche Technologien zu benutzen. Deine Settings, können in deinem Gerät bei deinem Browser geändert werden.

Für den bestimmten Zweck, berechtigten Interessen beruhen darauf, mehr als auf den Inhalt. Du kannst mehr darüber in unseren Privaten und Cookie Politik lesen.